COSMOS 2251 DEB

Satellite information

Favourite Embed

Satellite Type and Status

DEBRISIN ORBIT

Key statistics

Satellite COSMOS 2251 DEB at a glance.

Uptime

11647

Days in orbit

Revolutions

≈ 15.0

Per day

Orbit

LEO

Low Earth Orbit

Inclination

73.8

Latest

Satellite identification and parameters

Extended collection of information and parameters for COSMOS 2251 DEB.

Object identification

Identified? True

Debris? True

Object name: COSMOS 2251 DEB

International designator: 1993-036BAQ

Object number (NORAD): 36441

Object ID (CCSDS): 36441

Country: COMMONWEALTH OF INDEPENDENT STATES (CIS)

Current information (Y/N): Y

RCS size: SMALL

Orbital parameters

Period: 95.859 minutes

Inclination: 73.8346 deg

SMA: 6938.233 km

Apoapsis: 645.006 km

Periapsis: 475.19 km

RAAN: 116.5908 deg

Eccentricy: 0.0122377

Argument of periapsis: 266.4296 deg

Mean anomaly: 92.2888 deg

Mean motion: 15.02205686 rev/day

Mean motion (dot): 0.00011773 rev/day2

B* drag term: 0.00076119 1/REarth

Two-line elements (TLE)

Creation date: April 22, 2025, 3:07 a.m.

Reference frame: TEME

Reference center: EARTH

Epoch: April 21, 2025, 4:26 p.m. UTC

TLE line 0: 0 COSMOS 2251 DEB

TLE line 1: 1 36441U 93036BAQ 25111.68496785 .00011773 00000-0 76119-3 0 9998

TLE line 2: 2 36441 73.8346 116.5908 0122377 266.4296 92.2888 15.02205686834319

Live tracking on map

Real-time ground track for satellite COSMOS 2251 DEB.

In-orbit conjunctions

A list of the most updated potential collisions computed for object COSMOS 2251 DEB.

Target Orbit TCA Probability of collision Miss distance Type
CZ-6A DEB LEO 2024-11-02 02:12:54 0.0001687975 772.0 (m) DEBRIS

Associated space launch

Military communications satellite. Destroyed in a collision with Iridium 33.

COSMOS 2251 DEB was lifted into orbit during the mission ‘Kosmos-3M | Strela-2M 51’, on board a Kosmos-3M space rocket.

The launch took place on June 16, 1993, 4:17 a.m. from 132/1 (132L).

For more information about the launch, click the button.

Launch to space Kosmos-3M | Strela-2M 51
Kosmos-3M | Strela-2M 51

Agency: N/A

Status: Launch Successful

Launch date: June 16, 1993, 4:17 a.m. UTC

Rocket: Kosmos-3M

Launch pad: 132/1 (132L)

Location: Plesetsk Cosmodrome, Russian Federation

...

Latest news about this satellite

There are no fresh news available about this satellite. Check back as we update our databases every day.


Newsletter sign-up

Weekly statistics, charts and insights to help you stay on top of the space industry.